1532448000.88,10636,20.63,73940.0,8.33,5.33,5.37,0,*73
1532448002.11,10637,20.63,73950.0,8.31,4.93,5.05,0,*7A
1532448003.28,10638,20.56,73938.5,8.31,4.81,4.89,0,*73
1532448004.54,10639,20.63,73924.5,8.29,5.01,4.97,0,*7D
1532448005.71,10640,20.63,73928.3,8.31,5.33,5.37,0,*70
1532448006.9,10641,20.63,73946.5,8.31,5.49,5.51,0,*7C
1532448008.1,10642,20.63,73948.3,8.31,5.23,5.27,0,*72
1532448009.31,10643,20.63,73946.3,8.29,5.19,5.23,0,*77
1532448010.52,10644,20.63,73946.0,8.29,5.07,5.15,0,*7A
1532448011.72,10645,20.63,73944.3,8.29,4.85,4.89,0,*74
1532448012.97,10646,20.63,73942.3,8.29,4.59,4.59,0,*7B
1532448014.18,10647,20.56,73940.0,8.29,5.23,5.23,0,*7A
1532448015.38,10648,20.63,73954.0,8.29,5.59,5.71,0,*7F
1532448016.58,10649,20.56,73952.5,8.27,5.55,5.67,0,*7B
1532448017.75,10650,20.63,73954.3,8.27,5.33,5.49,0,*7F
1532448018.95,10651,20.63,73954.8,8.27,5.59,5.55,0,*7F
1532448020.17,10652,20.56,73956.3,8.29,5.67,5.77,0,*7F
1532448021.37,10653,20.63,73954.5,8.27,5.71,5.93,0,*7D
1532448022.58,10654,20.63,73946.5,8.27,5.77,5.93,0,*7C
1532448023.8,10655,20.63,73946.8,8.27,5.81,5.93,0,*74
1532448025.06,10656,20.63,73944.3,8.29,5.89,5.93,0,*71
1532448026.3,10657,20.63,73946.0,8.29,5.77,5.93,0,*71
1532448027.53,10658,20.63,73948.3,8.29,5.89,5.99,0,*75
1532448028.74,10659,20.63,73946.5,8.29,5.59,5.67,0,*78
1532448029.91,10660,20.63,73952.0,8.31,5.49,5.59,0,*77
1532448031.09,10661,20.63,73942.8,8.27,5.19,5.11,0,*78
1532448032.29,10662,20.63,73936.0,8.27,5.07,4.97,0,*7B
1532448033.47,10663,20.63,73930.0,8.27,5.33,5.29,0,*79
1532448034.64,10664,20.56,73910.3,8.27,5.29,5.23,0,*7F
1532448035.82,10665,20.63,73944.0,8.27,5.19,5.19,0,*74
1532448037.01,10666,20.63,73972.5,8.27,5.45,5.55,0,*76
1532448038.25,10667,20.63,73954.3,8.27,4.97,5.01,0,*78
1532448039.5,10668,20.56,73932.3,8.25,3.41,3.53,0,*78
1532448040.71,10669,20.56,73946.3,8.21,4.01,4.19,0,*77
1532448041.91,10670,20.63,73944.8,8.25,4.57,4.81,0,*79
1532448043.13,10671,20.63,73944.8,8.21,5.11,5.27,0,*72
1532448044.34,10672,20.63,73948.0,8.21,5.11,5.15,0,*70
1532448045.57,10673,20.63,73938.3,8.21,5.05,5.11,0,*70
1532448046.74,10674,20.63,73934.3,8.23,5.23,5.37,0,*75
1532448047.91,10675,20.56,73936.3,8.23,5.49,5.49,0,*71
1532448049.08,10676,20.63,73942.3,8.23,5.71,5.59,0,*78
1532448050.26,10677,20.56,73946.5,8.23,5.71,5.59,0,*79
1532448051.46,10678,20.63,73932.5,8.23,5.11,5.05,0,*79
1532448052.63,10679,20.63,73936.5,8.23,4.57,4.45,0,*7E
1532448053.85,10680,20.63,73944.8,8.23,3.49,3.49,0,*7B
1532448055.05,10681,20.63,73958.0,8.23,3.29,3.49,0,*7C
1532448056.3,10682,20.63,73954.3,8.25,2.69,2.81,0,*79
1532448057.55,10683,20.63,73950.8,8.25,1.55,1.67,0,*7F
1532448058.77,10684,20.56,73946.3,8.23,1.59,1.51,0,*77
1532448059.99,10685,20.63,73950.3,8.21,2.21,2.35,0,*79
1532448061.25,10686,20.56,73948.8,8.21,3.07,3.03,0,*7B
1532448062.47,10687,20.63,73948.8,8.21,3.81,3.49,0,*7A
1532448063.67,10688,20.63,73944.8,8.17,3.93,3.55,0,*7E
1532448064.9,10689,20.63,73932.8,8.19,3.97,3.67,0,*74
1532448066.13,10690,20.56,73930.8,8.19,3.49,3.49,0,*73
1532448067.38,10691,20.63,73954.5,8.17,3.37,3.71,0,*7E
1532448068.61,10692,20.56,73948.0,8.17,2.95,3.45,0,*73
1532448069.83,10693,20.56,73958.8,8.17,2.77,3.59,0,*73
1532448071.06,10694,20.63,73960.0,8.17,2.85,3.55,0,*75
1532448072.28,10695,20.56,73958.8,8.19,2.77,3.37,0,*73
1532448073.49,10696,20.63,73964.8,8.19,2.43,2.99,0,*72
1532448074.72,10697,20.63,73976.8,8.19,1.71,2.85,0,*7C
1532448075.94,10698,20.56,73960.3,8.19,0.83,3.15,0,*47
1532448077.2,10699,20.63,73952.5,8.17,2.25,4.05,0,*70
1532448078.43,10700,20.63,73954.5,8.17,3.79,4.37,0,*78
1532448079.64,10701,20.56,73950.5,8.17,4.15,4.27,0,*75
1532448080.85,10702,20.63,73964.3,8.15,4.01,4.01,0,*75
1532448082.05,10703,20.56,73960.5,8.15,3.81,4.05,0,*7F
1532448083.27,10704,20.63,73964.3,8.15,3.33,3.67,0,*72
1532448084.5,10705,20.63,73960.5,8.11,3.41,3.89,0,*72
1532448085.72,10706,20.63,73958.0,8.11,3.97,4.11,0,*7C
1532448086.97,10707,20.56,73962.5,8.11,3.97,3.79,0,*74
1532448088.2,10708,20.63,73964.3,8.11,3.75,3.63,0,*7C
1532448089.46,10709,20.63,73962.8,8.11,3.41,3.71,0,*79
1532448090.66,10710,20.63,73956.3,8.11,2.95,3.25,0,*78
1532448091.83,10711,20.63,73948.3,8.15,2.27,3.29,0,*78
1532448093.05,10712,20.56,73948.8,8.11,2.31,3.53,0,*75
1532448094.26,10713,20.56,73960.3,8.11,2.65,3.85,0,*7E
1532448095.42,10714,20.56,73956.3,8.15,2.61,4.11,0,*73
1532448096.62,10715,20.63,73958.8,8.15,3.33,4.53,0,*72
1532448097.85,10716,20.63,73966.0,8.11,3.41,4.49,0,*7B
1532448099.05,10717,20.63,73954.3,8.11,3.63,4.41,0,*72
1532448100.28,10718,20.56,73938.3,8.11,4.07,4.67,0,*7C
1532448101.51,10719,20.56,73954.5,8.09,4.67,5.05,0,*77
1532448102.77,10720,20.56,73950.3,8.11,4.67,4.71,0,*76
1532448104.0,10721,20.63,73956.0,8.09,4.79,4.93,0,*7D
1532448105.18,10722,20.63,73958.8,8.09,4.81,4.89,0,*72
1532448106.38,10723,20.63,73968.0,8.11,5.15,5.11,0,*76
1532448107.56,10724,20.56,73966.5,8.09,5.07,5.07,0,*7C
1532448108.8,10725,20.63,73960.0,8.09,4.71,4.71,0,*7D
1532448110.0,10726,20.56,73958.3,8.07,4.19,4.57,0,*7A
1532448111.24,10727,20.56,73962.5,8.09,4.79,5.01,0,*71
1532448112.45,10728,20.56,73960.8,8.09,4.79,4.57,0,*7C
1532448113.64,10729,20.63,73950.3,8.07,4.53,3.85,0,*73
1532448114.9,10730,20.63,73946.0,8.07,3.75,3.45,0,*74
1532448116.15,10731,20.63,73950.3,8.07,3.67,3.71,0,*71
1532448117.37,10732,20.56,73958.5,8.07,3.81,3.71,0,*7A
1532448118.6,10733,20.56,73952.5,8.07,2.61,2.01,0,*72
1532448119.83,10734,20.63,73950.3,8.07,0.47,0.75,0,*72
1532448121.02,10735,20.63,73950.0,8.09,0.41,1.01,0,*49
1532448122.25,10736,20.63,73950.3,8.07,0.13,0.33,0,*73
1532448123.44,10737,20.56,73954.5,8.09,-0.41,-0.19,0,*73
1532448124.65,10738,20.56,73950.3,8.07,0.43,1.33,0,*49
1532448125.87,10739,20.56,73954.8,8.07,1.05,1.59,0,*77
1532448127.08,10740,20.56,73960.8,8.07,0.43,1.37,0,*42
1532448128.29,10741,20.63,73964.8,8.07,-0.15,1.71,0,*6F
1532448129.54,10742,20.56,73962.5,8.07,-0.27,2.73,0,*6C
1532448130.8,10743,20.56,73962.0,8.03,0.83,3.41,0,*4A
1532448132.0,10744,20.63,73964.8,8.03,2.27,3.63,0,*71
1532448133.21,10745,20.56,73962.3,8.03,3.29,3.89,0,*7B
1532448134.41,10746,20.56,73962.0,7.99,4.07,4.45,0,*78
1532448135.64,10747,20.56,73958.5,7.99,4.57,4.63,0,*78
1532448136.85,10748,20.63,73964.5,7.99,4.45,4.41,0,*74
1532448138.1,10749,20.63,73960.5,7.99,3.71,3.71,0,*71
1532448139.31,10750,20.56,73962.3,7.95,4.11,4.15,0,*71
1532448140.51,10751,20.56,73960.0,7.95,4.41,4.49,0,*7C
1532448141.73,10752,20.56,73962.0,7.95,4.01,4.11,0,*76
1532448142.92,10753,20.56,73964.3,7.93,3.89,3.93,0,*7B
1532448144.15,10754,20.63,73966.5,7.89,3.53,3.49,0,*77
1532448145.37,10755,20.56,73958.5,7.85,3.49,3.53,0,*7A
1532448146.63,10756,20.56,73958.8,7.83,3.67,3.67,0,*74
1532448147.81,10757,20.56,73962.8,7.81,3.93,3.89,0,*7C
1532448149.02,10758,20.56,73968.5,7.83,4.11,4.15,0,*7E
1532448150.25,10759,20.56,73960.0,7.79,3.71,3.71,0,*7E
1532448151.48,10760,20.56,73964.8,7.77,3.75,3.81,0,*71
1532448152.71,10761,20.56,73958.5,7.77,3.71,3.63,0,*78
1532448153.91,10762,20.63,73956.3,7.73,3.89,3.93,0,*77
1532448155.11,10763,20.56,73956.0,7.73,4.27,4.27,0,*7D
1532448156.34,10764,20.56,73962.3,7.75,4.75,4.75,0,*7C
1532448157.54,10765,20.56,73964.8,7.73,4.15,4.07,0,*78
1532448158.74,10766,20.56,73964.3,7.67,3.85,3.79,0,*7E
1532448159.94,10767,20.56,73964.5,7.67,2.85,2.91,0,*79
1532448161.14,10768,20.56,73968.8,7.67,2.51,2.61,0,*70
1532448162.37,10769,20.56,73970.0,7.63,2.39,2.55,0,*7C
1532448163.62,10770,20.56,73970.8,7.61,2.77,2.77,0,*7C
1532448164.84,10771,20.56,73972.3,7.59,2.89,2.85,0,*7A
1532448166.02,10772,20.56,73964.0,7.55,2.99,2.99,0,*79
1532448167.25,10773,20.56,73956.5,7.55,3.19,3.19,0,*78
1532448168.46,10774,20.56,73946.0,7.53,3.25,3.25,0,*79
1532448169.63,10775,20.63,73940.8,7.51,3.55,3.59,0,*76
1532448170.84,10776,20.56,73956.5,7.49,3.81,3.89,0,*78
1532448172.05,10777,20.56,73956.3,7.49,3.93,3.93,0,*71
1532448173.3,10778,20.56,73958.8,7.47,3.75,3.75,0,*70
1532448174.52,10779,20.56,73954.3,7.47,3.55,3.53,0,*77
1532448175.78,10780,20.56,73948.8,7.47,3.75,3.67,0,*74
1532448177.03,10781,20.56,73948.5,7.43,3.75,3.75,0,*72
1532448178.22,10782,20.63,73946.3,7.41,3.53,3.63,0,*70
1532448179.45,10783,20.56,73942.3,7.41,3.41,3.37,0,*73
1532448180.62,10784,20.56,73936.8,7.37,3.55,3.55,0,*74
1532448181.83,10785,20.56,73938.3,7.37,3.93,4.01,0,*79
1532448183.06,10786,20.63,73942.5,7.37,4.59,4.63,0,*7F
1532448184.3,10787,20.56,73934.0,7.37,4.59,4.75,0,*79
1532448185.51,10788,20.56,73908.8,7.37,4.81,4.97,0,*7F
1532448186.72,10789,20.56,73934.5,7.39,5.11,5.19,0,*7F
1532448187.95,10790,20.56,73940.3,7.39,5.23,5.27,0,*7B
1532448189.18,10791,20.56,73952.5,7.39,5.23,5.27,0,*7A
1532448190.42,10792,20.56,73948.8,7.39,5.01,5.11,0,*7C
1532448191.65,10793,20.63,73952.0,7.39,5.01,5.07,0,*7A
1532448192.91,10794,20.56,73950.3,7.43,5.05,5.05,0,*76
1532448194.1,10795,20.56,73940.0,7.41,4.57,4.59,0,*7B
1532448195.3,10796,20.56,73954.5,7.41,4.49,4.67,0,*7A
1532448196.5,10797,20.56,73950.8,7.39,3.59,3.93,0,*7E
1532448197.72,10798,20.56,73948.8,7.39,4.07,4.41,0,*75
1532448198.95,10799,20.56,73952.3,7.39,4.15,4.63,0,*77
1532448200.18,10800,20.56,73954.8,7.39,4.45,4.79,0,*76
1532448201.38,10801,20.56,73952.5,7.37,4.41,4.59,0,*7F
1532448202.57,10802,20.56,73950.8,7.37,4.37,4.53,0,*77
1532448203.8,10803,20.56,73942.5,7.39,4.75,4.85,0,*75
1532448205.04,10804,20.56,73944.3,7.37,4.71,4.71,0,*73
1532448206.28,10805,20.56,73948.8,7.35,4.97,5.07,0,*78
1532448207.54,10806,20.56,73940.8,7.35,4.75,4.71,0,*77
1532448208.74,10807,20.56,73946.8,7.35,5.19,5.29,0,*71
1532448209.92,10808,20.56,73944.5,7.37,4.85,4.85,0,*7F
1532448211.1,10809,20.56,73950.8,7.37,5.15,5.15,0,*7E
1532448212.28,10810,20.56,73944.8,7.33,4.81,4.81,0,*72
1532448213.54,10811,20.56,73946.5,7.35,4.71,4.59,0,*7F
1532448214.77,10812,20.63,73946.8,7.35,4.59,4.53,0,*7C
1532448215.97,10813,20.56,73928.8,7.33,4.57,4.59,0,*7F
1532448217.21,10814,20.56,73934.8,7.33,4.93,5.01,0,*7C
1532448218.4,10815,20.56,73934.5,7.33,5.11,5.19,0,*7F
1532448219.6,10816,20.56,73936.5,7.35,5.15,5.19,0,*7E
1532448220.82,10817,20.56,73932.0,7.35,5.23,5.23,0,*73
1532448222.05,10818,20.56,73954.3,7.33,5.05,5.05,0,*7A
1532448223.23,10819,20.56,73948.3,7.33,5.29,5.23,0,*71
1532448224.46,10820,20.56,73946.0,7.33,4.79,4.79,0,*71
1532448225.64,10821,20.56,73942.0,7.33,4.89,4.89,0,*70
1532448226.85,10822,20.56,73944.8,7.33,4.89,4.79,0,*7C
1532448228.06,10823,20.56,73952.5,7.33,4.59,4.57,0,*7C
1532448229.23,10824,20.56,73932.0,7.33,4.49,4.49,0,*75
1532448230.41,10825,20.56,73928.0,7.33,4.49,4.45,0,*78
1532448231.62,10826,20.56,73942.3,7.33,5.05,5.11,0,*72
1532448232.82,10827,20.56,73938.8,7.31,5.11,5.15,0,*70
1532448234.03,10828,20.56,73938.8,7.31,5.23,5.15,0,*7E
1532448235.2,10829,20.56,73946.3,7.33,5.29,5.37,0,*77
1532448236.4,10830,20.56,73954.0,7.33,5.29,5.27,0,*7E
1532448237.63,10831,20.56,73956.0,7.31,5.23,4.97,0,*7D
1532448238.86,10832,20.56,73956.8,7.33,4.93,4.59,0,*74
1532448240.03,10833,20.56,73958.0,7.33,5.15,4.89,0,*77
1532448241.24,10834,20.56,73952.3,7.33,5.29,4.93,0,*74
1532448242.47,10835,20.56,73944.5,7.33,5.05,4.01,0,*70
1532448243.72,10836,20.56,73948.0,7.35,4.71,3.53,0,*77
1532448244.89,10837,20.56,73950.5,7.33,5.15,2.35,0,*72
1532448246.12,10838,20.56,73958.8,7.35,4.85,0.83,0,*4C
1532448247.34,10839,20.56,73960.8,7.35,4.01,-0.81,0,*6E
1532448248.56,10840,20.56,73972.8,7.37,3.07,-0.53,0,*6C
1532448249.8,10841,20.56,73952.0,7.39,2.17,-0.15,0,*61
1532448251.03,10842,20.56,73948.0,7.39,1.59,-0.15,0,*6B
1532448252.23,10843,20.56,73938.8,7.37,1.63,-0.07,0,*5E
1532448253.43,10844,20.56,73938.5,7.37,0.67,-1.17,0,*6C
1532448254.64,10845,20.56,73944.8,7.37,-0.23,-2.83,0,*4E
1532448255.85,10846,20.56,73958.8,7.37,-2.51,-4.09,0,*7E
1532448257.1,10847,20.56,73956.5,7.39,-5.23,-3.75,0,*7F
1532448258.29,10848,20.56,73954.5,7.37,-1.55,-0.45,0,*4B
1532448259.47,10849,20.56,73956.3,7.37,-1.79,-0.45,0,*44
1532448260.7,10850,20.56,73956.0,7.37,-1.39,0.33,0,*64
1532448261.93,10851,20.56,73948.3,7.37,-0.93,0.59,0,*58
1532448263.15,10852,20.56,73938.0,7.33,0.25,1.63,0,*47
1532448264.4,10853,20.56,73944.3,7.35,1.85,2.47,0,*7E
1532448265.64,10854,20.56,73950.3,7.33,2.43,2.13,0,*77
1532448266.83,10855,20.56,73946.5,7.33,1.41,0.67,0,*46
1532448268.02,10856,20.56,73952.3,7.33,0.37,0.01,0,*45
1532448269.24,10857,20.56,73954.5,7.29,-2.91,-2.51,0,*76
1532448270.43,10858,20.63,73958.0,7.29,-5.35,-2.23,0,*75
1532448271.66,10859,20.56,73950.0,7.29,-1.83,0.87,0,*6C
1532448272.87,10860,20.56,73948.5,7.29,1.09,2.27,0,*71
1532448274.1,10861,20.56,73944.8,7.29,2.39,2.85,0,*78
1532448275.34,10862,20.56,73932.8,7.29,3.11,3.15,0,*78
1532448276.52,10863,20.56,73936.5,7.29,3.59,3.81,0,*78
1532448277.72,10864,20.56,73952.0,7.29,3.59,3.71,0,*70
1532448278.98,10865,20.56,73946.5,7.31,3.23,3.75,0,*71
1532448280.18,10866,20.56,73952.8,7.29,3.33,3.85,0,*75
1532448281.38,10867,20.56,73958.5,7.29,3.55,4.05,0,*7B
1532448282.58,10868,20.56,73948.5,7.29,3.33,3.63,0,*73
1532448283.75,10869,20.56,73950.3,7.29,3.63,4.19,0,*7D
1532448284.98,10870,20.56,73958.8,7.27,4.41,4.71,0,*72
1532448286.19,10871,20.56,73954.0,7.27,4.23,4.53,0,*77
1532448287.39,10872,20.56,73946.0,7.27,4.11,4.23,0,*72
1532448288.63,10873,20.56,73956.3,7.25,3.67,3.71,0,*77
1532448289.86,10874,20.56,73956.5,7.25,3.79,3.71,0,*7F
1532448291.11,10875,20.56,73956.0,7.19,3.45,3.45,0,*79
1532448292.33,10876,20.56,73960.5,7.19,3.71,3.63,0,*79
1532448293.53,10877,20.56,73958.0,7.15,3.55,3.55,0,*77
1532448294.77,10878,20.56,73952.3,7.15,3.79,3.81,0,*7F
1532448295.98,10879,20.56,73938.3,7.15,4.19,4.37,0,*75
1532448297.16,10880,20.56,73916.8,7.13,4.37,4.41,0,*78
1532448298.34,10881,20.56,73910.8,7.13,5.07,5.11,0,*7F
1532448299.52,10882,20.56,73912.3,7.13,5.23,5.33,0,*7A
1532448300.73,10883,20.63,73924.0,7.15,5.23,5.33,0,*7D
1532448301.9,10884,20.56,73916.0,7.13,5.23,5.29,0,*77
1532448303.11,10885,20.56,73924.0,7.15,5.23,5.29,0,*70
1532448304.3,10886,20.56,73930.8,7.13,5.19,5.23,0,*76
1532448305.5,10887,20.56,73928.8,7.15,5.33,5.41,0,*7D
1532448306.71,10888,20.56,73930.5,7.15,5.07,5.07,0,*77
1532448307.91,10889,20.56,73956.3,7.17,5.33,5.27,0,*71
1532448309.11,10890,20.56,73966.3,7.15,5.29,5.29,0,*7E
1532448310.34,10891,20.56,73968.3,7.17,4.79,4.75,0,*71
1532448311.56,10892,20.56,73976.3,7.15,4.37,4.37,0,*7C
1532448312.82,10893,20.56,73962.8,7.15,4.05,4.05,0,*7D
1532448314.03,10894,20.56,73958.3,7.15,4.37,4.49,0,*73
1532448315.26,10895,20.56,73952.5,7.11,4.89,4.93,0,*74
1532448316.44,10896,20.56,73944.8,7.13,5.11,5.07,0,*79
1532448317.62,10897,20.56,73944.5,7.13,5.33,5.41,0,*7A
1532448318.82,10898,20.56,73958.5,7.15,5.41,5.45,0,*72
1532448320.05,10899,20.56,73952.5,7.15,4.85,4.93,0,*70
1532448321.29,10900,20.56,73942.5,7.15,4.81,4.75,0,*7D
1532448322.52,10901,20.56,73938.5,7.13,5.01,4.97,0,*7F
1532448323.7,10902,20.56,73938.0,7.13,5.11,5.11,0,*72
1532448324.9,10903,20.56,73944.3,7.15,5.45,5.41,0,*71
1532448326.08,10904,20.56,73954.0,7.13,5.41,5.33,0,*71
1532448327.28,10905,20.56,73944.5,7.13,4.81,4.63,0,*79
1532448328.49,10906,20.56,73954.8,7.13,4.63,4.41,0,*76
1532448329.66,10907,20.56,73962.5,7.13,4.37,4.11,0,*73
1532448330.84,10908,20.56,73966.3,7.13,4.37,4.15,0,*78
1532448332.04,10909,20.56,73972.0,7.13,3.67,3.55,0,*78
1532448333.27,10910,20.56,73960.5,7.13,4.05,4.01,0,*75
1532448334.53,10911,20.56,73914.0,7.11,4.79,4.71,0,*7A
1532448335.73,10912,20.56,73910.5,7.11,5.07,5.07,0,*71
1532448336.93,10913,20.56,73908.8,7.11,5.41,5.15,0,*71
1532448338.13,10914,20.56,73908.8,7.13,4.81,4.59,0,*70
1532448339.39,10915,20.56,73904.8,7.15,4.97,4.63,0,*79
1532448340.64,10916,20.56,73906.8,7.11,5.05,4.59,0,*7D
1532448341.85,10917,20.56,73926.3,7.13,5.19,4.75,0,*7D
1532448343.06,10918,20.56,73926.3,7.15,5.19,4.81,0,*7F
1532448344.24,10919,20.56,73932.8,7.17,5.11,4.85,0,*70
1532448345.48,10920,20.56,73950.0,7.15,4.93,4.41,0,*7B
1532448346.7,10921,20.56,73944.5,7.17,4.63,3.37,0,*71
1532448347.88,10922,20.56,73958.5,7.17,3.85,1.83,0,*70
1532448349.1,10923,20.56,73958.8,7.17,2.21,-0.27,0,*6C
1532448350.32,10924,20.56,73938.0,7.17,1.33,-0.33,0,*6E
1532448351.56,10925,20.56,73936.8,7.19,2.73,1.93,0,*70
1532448352.76,10926,20.56,73938.0,7.17,3.37,2.27,0,*70
1532448354.01,10927,20.56,73946.5,7.19,3.23,1.97,0,*72
1532448355.23,10928,20.56,73946.3,7.21,2.25,0.25,0,*49
1532448356.46,10929,20.56,73932.8,7.19,1.79,1.17,0,*79
1532448357.7,10930,20.56,73940.0,7.19,2.05,1.67,0,*7E
1532448358.88,10931,20.56,73950.8,7.21,2.35,1.75,0,*74
1532448360.11,10932,20.56,73974.0,7.21,2.47,1.13,0,*72
1532448361.33,10933,20.56,73956.3,7.21,1.51,0.17,0,*42
1532448362.53,10934,20.56,73938.8,7.21,0.43,-2.47,0,*6D
1532448363.74,10935,20.56,73962.3,7.25,-2.27,-3.43,0,*70
1532448364.93,10936,20.56,73974.0,7.21,-1.67,-2.83,0,*7D
1532448366.15,10937,20.56,73972.0,7.21,-2.07,-1.71,0,*77
1532448367.4,10938,20.56,73972.0,7.21,-1.05,-1.83,0,*74
1532448368.62,10939,20.56,73956.0,7.21,-2.99,-5.03,0,*7F
1532448369.86,10940,20.56,73964.3,7.21,-5.11,-6.19,0,*7E
1532448371.14,10941,20.56,73966.8,7.19,-9.15,-9.83,0,*70
1532448372.37,10942,20.56,73966.3,7.21,-12.07,-10.35,0,*74
1532448373.62,10943,20.56,73962.8,7.21,-9.41,-5.81,0,*76
1532448374.86,10944,20.56,73966.0,7.21,-6.23,-4.01,0,*73
1532448376.05,10945,20.56,73966.8,7.21,-7.53,-6.43,0,*70
1532448377.3,10946,20.56,73956.5,7.19,-8.37,-5.03,0,*72
1532448378.53,10947,20.56,73940.3,7.19,-6.23,-2.79,0,*72
1532448379.75,10948,20.56,73936.8,7.15,-3.39,-0.41,0,*46
1532448381.02,10949,20.56,73936.0,7.15,-1.05,1.51,0,*57
1532448382.24,10950,20.56,73942.0,7.13,0.83,3.11,0,*4D
1532448383.46,10951,20.56,73950.0,7.13,2.77,4.05,0,*77
1532448384.68,10952,20.56,73954.3,7.13,3.89,4.71,0,*77
1532448385.91,10953,20.56,73950.3,7.13,4.31,4.71,0,*72
1532448387.12,10954,20.56,73944.8,7.13,4.53,4.71,0,*71
1532448388.32,10955,20.56,73932.3,7.13,4.31,4.49,0,*7F
1532448389.53,10956,20.56,73928.3,7.13,4.97,5.11,0,*7C
1532448390.74,10957,20.56,73950.5,7.11,5.19,5.19,0,*70
1532448391.94,10958,20.56,73946.5,7.13,5.45,5.51,0,*78
1532448393.14,10959,20.56,73950.0,7.13,5.41,5.51,0,*7D
1532448394.34,10960,20.56,73946.0,7.13,5.51,5.63,0,*77
1532448395.56,10961,20.56,73944.0,7.13,5.55,5.51,0,*73
1532448396.75,10962,20.56,73942.3,7.13,5.55,5.63,0,*71
1532448397.96,10963,20.56,73946.8,7.15,5.67,5.63,0,*77
1532448399.17,10964,20.56,73950.0,7.15,5.71,5.71,0,*74
1532448400.38,10965,20.56,73948.5,7.15,6.03,6.11,0,*76
1532448401.59,10966,20.56,73950.8,7.15,6.11,6.03,0,*75
1532448402.77,10967,20.56,73944.3,7.17,6.07,6.07,0,*75
1532448403.95,10968,20.56,73942.0,7.17,5.95,5.95,0,*7A
1532448405.2,10969,20.56,73950.0,7.19,5.93,5.73,0,*7B
1532448406.44,10970,20.56,73954.0,7.19,5.73,5.73,0,*7D
1532448407.65,10971,20.56,73958.5,7.21,5.73,5.49,0,*7E
1532448408.82,10972,20.56,73944.5,7.21,5.29,4.81,0,*77
1532448410.03,10973,20.56,73936.8,7.21,4.59,4.07,0,*7E
1532448411.28,10974,20.56,73942.3,7.27,4.75,4.59,0,*7A
1532448412.47,10975,20.56,73940.0,7.25,5.19,5.19,0,*77
1532448413.67,10976,20.56,73942.5,7.27,4.41,4.15,0,*77
1532448414.87,10977,20.56,73940.8,7.25,3.93,3.67,0,*7E
1532448416.11,10978,20.56,73926.8,7.21,3.75,3.07,0,*7B
1532448417.32,10979,20.56,73924.0,7.21,3.89,3.03,0,*7D
1532448418.53,10980,20.56,73950.3,7.21,3.67,1.83,0,*71
1532448419.76,10981,20.56,73940.5,7.19,-0.27,-4.37,0,*46
1532448421.03,10982,20.56,73940.0,7.19,-2.51,-7.57,0,*73
1532448422.27,10983,20.56,73938.0,7.15,-6.19,-9.79,0,*74
1532448423.48,10984,20.5,73944.3,7.13,-6.63,-7.87,0,*77
1532448424.72,10985,20.56,73952.8,7.11,-6.55,-7.77,0,*7E
1532448425.94,10986,20.56,73952.5,7.09,-6.35,-5.73,0,*74
1532448427.14,10987,20.56,73958.5,7.09,-4.53,-1.95,0,*7B
1532448428.36,10988,20.56,73962.0,7.07,-3.11,-2.23,0,*75
1532448429.59,10989,20.56,73952.8,7.07,-4.49,-3.59,0,*72
1532448430.81,10990,20.5,73960.3,7.07,-3.91,-4.17,0,*75
1532448432.03,10991,20.56,73964.0,7.05,-5.85,-4.99,0,*73
1532448433.29,10992,20.56,73970.0,7.03,-7.99,-6.27,0,*7E
1532448434.47,10993,20.56,73976.0,6.97,-10.01,-8.75,0,*4D
1532448435.71,10994,20.56,73974.3,6.97,-11.67,-8.03,0,*4A
1532448436.92,10995,20.56,73960.3,6.95,-8.59,-3.27,0,*71
1532448438.14,10996,20.56,73952.0,6.93,-5.23,-1.29,0,*78
1532448439.32,10997,20.56,73952.3,6.93,-4.17,-0.29,0,*4E
1532448440.52,10998,20.56,73942.8,6.93,-2.43,1.21,0,*52
1532448441.79,10999,20.56,73934.3,6.91,-0.27,2.51,0,*65
1532448443.01,11000,20.56,73934.5,6.91,1.41,2.85,0,*78
1532448444.22,11001,20.5,73924.8,6.91,1.83,2.95,0,*76
1532448445.44,11002,20.56,73938.0,6.89,1.89,2.85,0,*77
1532448446.69,11003,20.56,73922.8,6.91,1.43,2.85,0,*79
1532448447.92,11004,20.56,73902.0,6.91,0.71,2.27,0,*46
1532448449.14,11005,20.56,73934.8,6.89,0.75,1.85,0,*41
1532448450.4,11006,20.56,73964.5,6.91,1.55,1.51,0,*71
1532448451.65,11007,20.56,73972.5,6.91,1.51,1.17,0,*76
1532448452.88,11008,20.56,73968.3,6.91,0.79,-0.69,0,*57
1532448454.13,11009,20.56,73962.3,6.91,-3.55,-4.57,0,*7F
1532448455.32,11010,20.56,73962.0,6.89,-4.25,-3.79,0,*75
1532448456.52,11011,20.56,73966.3,6.89,-3.83,-2.79,0,*7E
1532448457.76,11012,20.56,73964.0,6.87,-3.07,-1.87,0,*7D
1532448458.98,11013,20.56,73948.0,6.87,-3.27,-0.73,0,*44
1532448460.18,11014,20.56,73940.8,6.85,-1.71,0.71,0,*6F
1532448461.41,11015,20.56,73938.3,6.87,-0.11,1.71,0,*6A
1532448462.63,11016,20.56,73938.0,6.85,0.29,1.85,0,*46
1532448463.83,11017,20.56,73942.3,6.87,-0.03,1.75,0,*5F
1532448465.08,11018,20.56,73942.0,6.87,-1.43,1.59,0,*5B
1532448466.32,11019,20.56,73940.3,6.87,-1.21,2.09,0,*58
1532448467.55,11020,20.56,73940.3,6.85,-0.85,2.05,0,*63
1532448468.78,11021,20.56,73944.8,6.87,-1.75,0.83,0,*62
1532448469.98,11022,20.56,73942.5,6.85,-1.63,0.71,0,*69
1532448471.18,11023,20.5,73930.5,6.87,-1.25,0.97,0,*60
1532448472.4,11024,20.56,73938.0,6.87,-0.77,0.51,0,*5B
1532448473.63,11025,20.56,73942.3,6.87,-0.73,0.13,0,*58
1532448474.85,11026,20.56,73944.5,6.87,-1.63,-1.71,0,*73
1532448476.08,11027,20.56,73942.8,6.87,-1.59,-1.87,0,*72
1532448477.29,11028,20.56,73928.5,6.87,-0.73,-0.45,0,*7B
1532448478.51,11029,20.5,73938.0,6.85,0.25,0.47,0,*79
1532448479.74,11030,20.56,73948.3,6.85,1.97,1.37,0,*7F
1532448480.96,11031,20.56,73940.0,6.85,2.77,0.59,0,*4A
1532448482.19,11032,20.56,73946.8,6.85,2.81,-0.89,0,*60
1532448483.42,11033,20.56,73952.5,6.85,2.81,-1.83,0,*5A
1532448484.66,11034,20.56,73946.3,6.87,1.47,-2.23,0,*5F
1532448485.89,11035,20.5,73944.3,6.87,1.25,-0.57,0,*6B
1532448487.11,11036,20.5,73952.8,6.85,2.05,1.13,0,*77
1532448488.37,11037,20.56,73954.0,6.87,3.19,3.71,0,*7E
1532448489.62,11038,20.56,73952.3,6.87,4.63,4.93,0,*70
1532448490.82,11039,20.5,73948.3,6.87,4.81,4.81,0,*7E
1532448492.03,11040,20.5,73940.8,6.87,4.45,4.45,0,*70
1532448493.23,11041,20.5,73946.0,6.87,4.53,4.53,0,*71
1532448494.44,11042,20.56,73944.0,6.89,4.59,4.57,0,*72
1532448495.64,11043,20.5,73956.0,6.87,4.23,4.11,0,*72
1532448496.9,11044,20.56,73946.5,6.87,3.71,2.81,0,*7A
1532448498.15,11045,20.5,73926.8,6.87,3.53,2.59,0,*7E
1532448499.38,11046,20.5,73938.0,6.85,3.03,2.39,0,*7C
1532448500.63,11047,20.56,73946.8,6.87,2.89,2.09,0,*7F
1532448501.84,11048,20.56,73940.3,6.89,1.41,1.17,0,*75
1532448503.04,11049,20.56,73948.0,6.89,2.01,2.31,0,*74
1532448504.27,11050,20.5,73942.8,6.91,2.65,1.55,0,*76
1532448505.48,11051,20.56,73950.5,6.91,1.41,-0.41,0,*6B
1532448506.7,11052,20.5,73950.3,6.91,0.97,-0.49,0,*5A
1532448507.88,11053,20.56,73946.5,6.93,-0.15,-1.79,0,*4C
1532448509.15,11054,20.56,73952.0,6.95,-1.39,-2.07,0,*78
1532448510.38,11055,20.56,73948.3,6.95,-4.41,-4.93,0,*78
1532448511.65,11056,20.5,73930.0,6.95,-5.19,-1.39,0,*72
1532448512.88,11057,20.5,73920.0,6.95,-1.33,2.39,0,*51
1532448514.09,11058,20.5,73922.0,6.97,1.13,3.63,0,*7D
1532448515.32,11059,20.56,73926.0,6.99,2.61,3.07,0,*76
1532448516.57,11060,20.5,73924.8,6.99,3.33,2.73,0,*78
1532448517.82,11061,20.56,73928.0,6.99,2.85,1.17,0,*74
1532448519.04,11062,20.56,73936.8,7.03,2.35,-0.93,0,*6E
1532448520.24,11063,20.5,73936.3,7.05,0.71,-4.41,0,*60
1532448521.48,11064,20.5,73940.3,7.05,-2.67,-7.35,0,*7F
1532448522.69,11065,20.56,73938.0,7.05,-7.95,-9.67,0,*7F
1532448523.92,11066,20.56,73946.0,7.05,-9.57,-7.57,0,*71
1532448525.15,11067,20.5,73938.3,7.05,-10.19,-7.57,0,*42
1532448526.34,11068,20.5,73942.5,7.05,-11.15,-6.13,0,*41
1532448527.53,11069,20.56,73946.8,7.09,-10.49,-4.29,0,*4F